Regional Weather Roundup
Issued by NWS State College, PA

Home | Current Version | Previous Version | Graphics & Text | Print | Product List | Glossary On
Versions: 1 2 3 4 5 6 7 8 9 10 11 12 13 14 15 16 17 18 19 20 21 22 23 24 25 26 27 28 29 30 31 32 33 34 35 36 37 38 39 40 41 42 43 44 45 46 47 48 49 50
000
ASUS41 KCTP 110403
RWRCTP

REGIONAL WEATHER ROUNDUP
NATIONAL WEATHER SERVICE STATE COLLEGE PA
1100 PM EST SAT DEC 10 2016

Note: "fair" indicates few or no clouds below 12,000 feet with no
significant weather and/or obstructions to visibility.

* = STATION THAT DOES NOT REPORT PRECIPITATION /E.G. RAIN...SNOW...ETC/
    THUNDER OR FOG.

PAZ002>004-007>009-013>016-020>023-029>032-110500-
WESTERN PENNSYLVANIA

CITY           SKY/WX    TMP DP  RH WIND       PRES   REMARKS
ERIE           CLOUDY    23  13  65 S15       30.39S WCI  10
MEADVILLE      CLOUDY    20  12  71 SW9       30.36F WCI   9
FRANKLIN*        N/A     18   9  68 SW7       30.38S WCI   8
NEW CASTLE     CLOUDY    23  16  74 S3        30.43S
BEAVER COUNTY  NOT AVBL
BUTLER*        CLOUDY    23  16  74 SW5       30.44S
PITTSBURGH INT CLOUDY    24  17  74 S3        30.42R
PITTSBURGH     CLOUDY    23  14  68 S3        30.42R
INDIANA*       CLOUDY    21  18  86 W7        30.44R WCI  13
LATROBE        CLOUDY    21  16  79 CALM      30.44R
WASHINGTON CO* PTCLDY    21  14  73 CALM      30.42S
$$

PAZ004>006-010>012-017>019-024>028-033>037-041-042-045-046-049>053-110500-
CENTRAL PENNSYLVANIA

CITY           SKY/WX    TMP DP  RH WIND       PRES   REMARKS
BRADFORD       CLOUDY    15  12  88 SW6       30.31R WCI   6
DUBOIS         CLEAR     16   9  74 SW8       30.35R WCI   5
CLEARFIELD     CLEAR     15  13  91 S5        30.39R WCI   8
JOHNSTOWN      PTCLDY    17  11  77 SW5       30.34R WCI  10
ALTOONA        CLOUDY    22  14  71 SW8       30.42R WCI  12
STATE COLLEGE  PTCLDY    19  15  82 SW3       30.41S
WILLIAMSPORT   CLEAR     23  16  74 CALM      30.45R
SELINSGROVE    CLEAR     20  16  84 CALM      30.47S
FT INDIANTOWN  CLEAR     24  15  68 W3        30.47R
CAPITAL CITY   CLEAR     25  13  60 W7        30.49S
HARRISBURG     CLEAR     26  15  63 CALM      30.49R
YORK           CLEAR     21  13  71 CALM      30.48S
$$

PAZ038>040-043-044-047-048-054-055-060>062-067>071-110500-
EASTERN PENNSYLVANIA

CITY           SKY/WX    TMP DP  RH WIND       PRES   REMARKS
SCRANTON       MOCLDY    22  16  78 S3        30.41R
MOUNT POCONO   CLEAR     17  12  80 W9        30.34R WCI   6
ALLENTOWN      CLEAR     23  14  68 SW3       30.46R
QUAKERTOWN*    CLEAR     23  16  74 SW3       30.47R
READING        CLEAR     24  14  65 W7        30.48R
LANCASTER      CLEAR     23  15  71 W5        30.50R
COATESVILLE    CLEAR     21  14  73 W6        30.48R WCI  14
POTTSTOWN      CLEAR     23  15  71 CALM      30.49R
BLUE BELL      CLEAR     27  18  69 CALM      30.47S
DOYLESTOWN     CLEAR     26  16  65 CALM      30.46R
WILLOW GROVE   NOT AVBL
NORTH PHILA    PTCLDY    29  16  58 NW6       30.50R
PHILADELPHIA   CLEAR     27  15  61 W5        30.51R
$$



USA.gov is the U.S. government's official web portal to all federal, state and local government web resources and services.